Regional Weather Roundup
Issued by NWS

Home | Current Version | Previous Version | Text Only | Print | Product List | Glossary On
Versions: 1 2 3 4 5 6 7 8 9 10 11 12 13 14 15 16 17 18 19 20 21 22 23 24 25 26 27 28 29 30 31 32 33 34 35 36 37 38 39 40 41 42 43 44 45 46 47 48
000
ASPQ40 PGUM 252012
RWRPQ
WEATHER ROUNDUP FOR THE MARIANAS AND MICRONESIA
NATIONAL WEATHER SERVICE TIYAN GU
600 AM CHST FRI DEC 26 2014

GUZ001>004-252100-
MARIANA ISLANDS-

CITY           SKY/WX    TMP DP  RH WIND       PRES   REMARKS
GUAM AIRPORT   PTCLDY    82  75  78 NE12      29.80R
ANDERSEN AFB   MOCLDY    79  73  83 NE17      29.81R
ROTA AIRPORT   MOCLDY    79  73  83 E16       29.83
TINIAN AP      MOCLDY    81  73  78 E15       29.81
SAIPAN AP      PTCLDY    79  75  89 NE13G25   29.82R

$$

PMZ161-252100-
REPUBLIC OF PALAU-

CITY           SKY/WX    TMP DP  RH WIND       PRES   REMARKS
KOROR AP       LGT RAIN  77  75  94 NE13      29.69S
KOROR WSO      LGT RAIN  75  75 100 NE7       29.68S

$$

PMZ171>174-252100-
FEDERATED STATES OF MICRONESIA-

CITY           SKY/WX    TMP DP  RH WIND       PRES   REMARKS
YAP AIRPORT    CLOUDY    81  77  89 E8        29.72R
CHUUK AP       CLOUDY    82  72  69 NE12G18   29.74R
POHNPEI AP     NOT AVBL
POHNPEI WSO    LGT RAIN  81  77  89 NE12      29.77R
KOSRAE AP      NOT AVBL

$$

PMZ181-252100-
REPUBLIC OF THE MARSHALL ISLANDS-

CITY           SKY/WX    TMP DP  RH WIND       PRES   REMARKS
KWAJALEIN AP   MOSUNNY   82  68  61 NE20      29.80R
MAJURO AP      NOT AVBL
MAJURO WSO     CLOUDY    82  75  78 NE14      29.75R

$$



USA.gov is the U.S. government's official web portal to all federal, state and local government web resources and services.